Appleton, MN

1:48 AM CDT on May 25, 2017 (GMT -0500)
Appleton Municipal

Weather History for KAQP - November, 2014

Change the Weather History Date:

Tuesday, November 4, 2014

  Actual Average Record
Temperature  
Mean Temperature 39 °F -  
Max Temperature 48 °F 43 °F 75 °F (2016)
Min Temperature 30 °F 26 °F 21 °F (1999)
Degree Days  
Heating Degree Days 26    
Moisture  
Dew Point 31 °F    
Average Humidity 74    
Maximum Humidity 93    
Minimum Humidity 50    
Precipitation  
Precipitation 0.00 in - - ()
Sea Level Pressure  
Sea Level Pressure 29.96 in    
Wind  
Wind Speed 12 mph (WNW)    
Max Wind Speed 22 mph    
Max Gust Speed 28 mph    
Visibility 10 miles    
Events      
Averages and records for this station are not official NWS values.
T = Trace of Precipitation, MM = Missing Value Source: NWS Daily Summary

Daily Weather History Graph

Daily Weather History Graph

Search for Another Location

Airport or City:

Trip Planner

Search our weather history database for the weather conditions in past years. The results will help you decide how hot, cold, wet, or windy it might be!

Date:

Astronomy

Nov. 04, 2014 Rise Set
Actual Time 7:07 AM CST 5:07 PM CST
Civil Twilight 6:36 AM CST 5:38 PM CST
Nautical Twilight 6:01 AM CST 6:13 PM CST
Astronomical Twilight 5:26 AM CST 6:47 PM CST
Moon 4:00 PM CST (11/4) 4:18 AM CST (11/4)
Length of Visible Light 11h 02m
Length of Day
10h 00m
Waxing Gibbous, 94% of the Moon is Illuminated
Nov 4
Waxing Gibbous
Nov 6
Full
Nov 14
Last Quarter
Nov 22
New
Nov 29
First Quarter

Hourly Weather History & Observations

Time (CST) Temp. Windchill Dew Point Humidity Pressure Visibility Wind Dir Wind Speed Gust Speed Precip Events Conditions
12:14 AM 42.8 °F 35.1 °F 33.8 °F 70% 29.92 in 10.0 mi WNW 16.1 mph - N/A   Overcast
12:34 AM 42.8 °F 35.1 °F 33.8 °F 70% 29.92 in 10.0 mi NW 16.1 mph 21.9 mph N/A   Overcast
12:54 AM 42.8 °F 35.8 °F 33.8 °F 70% 29.92 in 10.0 mi WNW 13.8 mph - N/A   Mostly Cloudy
1:15 AM 42.8 °F 35.4 °F 33.8 °F 70% 29.92 in 10.0 mi WNW 15.0 mph 20.7 mph N/A   Overcast
1:34 AM 42.8 °F 34.0 °F 33.8 °F 70% 29.93 in 10.0 mi NW 20.7 mph - N/A   Mostly Cloudy
1:54 AM 42.8 °F 36.2 °F 33.8 °F 70% 29.94 in 10.0 mi WNW 12.7 mph - N/A   Mostly Cloudy
2:14 AM 42.8 °F 36.2 °F 33.8 °F 70% 29.93 in 10.0 mi NW 12.7 mph - N/A   Mostly Cloudy
2:35 AM 42.8 °F 37.0 °F 33.8 °F 70% 29.93 in 10.0 mi WNW 10.4 mph - N/A   Mostly Cloudy
2:54 AM 41.0 °F 35.8 °F 33.8 °F 76% 29.93 in 10.0 mi WNW 8.1 mph - N/A   Scattered Clouds
3:15 AM 37.4 °F 30.8 °F 32.0 °F 81% 29.93 in 10.0 mi WNW 9.2 mph - N/A   Clear
3:34 AM 39.2 °F 32.5 °F 32.0 °F 75% 29.92 in 10.0 mi WNW 10.4 mph - N/A   Clear
3:54 AM 37.4 °F 30.8 °F 30.2 °F 75% 29.92 in 10.0 mi WNW 9.2 mph - N/A   Clear
4:14 AM 35.6 °F 28.0 °F 30.2 °F 81% 29.93 in 10.0 mi West 10.4 mph - N/A   Clear
4:35 AM 35.6 °F 28.0 °F 30.2 °F 81% 29.94 in 10.0 mi West 10.4 mph - N/A   Clear
4:55 AM 35.6 °F 28.0 °F 30.2 °F 81% 29.94 in 10.0 mi West 10.4 mph - N/A   Clear
5:14 AM 35.6 °F 28.6 °F 30.2 °F 81% 29.95 in 10.0 mi WSW 9.2 mph - N/A   Clear
5:34 AM 35.6 °F 28.6 °F 30.2 °F 81% 29.95 in 10.0 mi SW 9.2 mph - N/A   Clear
5:54 AM 35.6 °F 29.2 °F 30.2 °F 81% 29.95 in 10.0 mi SW 8.1 mph - N/A   Clear
6:14 AM 33.8 °F 27.0 °F 30.2 °F 87% 29.94 in 10.0 mi SW 8.1 mph - N/A   Clear
6:35 AM 33.8 °F 27.0 °F 30.2 °F 87% 29.94 in 10.0 mi SW 8.1 mph - N/A   Clear
6:54 AM 33.8 °F 27.0 °F 30.2 °F 87% 29.94 in 10.0 mi WSW 8.1 mph - N/A   Clear
7:14 AM 33.8 °F 27.0 °F 30.2 °F 87% 29.94 in 10.0 mi WSW 8.1 mph - N/A   Clear
7:34 AM 33.8 °F 27.0 °F 30.2 °F 87% 29.95 in 10.0 mi West 8.1 mph - N/A   Scattered Clouds
7:54 AM 35.6 °F 29.2 °F 30.2 °F 81% 29.95 in 10.0 mi West 8.1 mph - N/A   Clear
8:14 AM 35.6 °F 29.9 °F 32.0 °F 87% 29.94 in 10.0 mi WSW 6.9 mph - N/A   Clear
8:34 AM 37.4 °F 30.3 °F 33.8 °F 87% 29.94 in 10.0 mi WSW 10.4 mph - N/A   Clear
8:54 AM 39.2 °F 33.0 °F 33.8 °F 81% 29.95 in 10.0 mi West 9.2 mph - N/A   Clear
9:14 AM 42.8 °F 36.2 °F 33.8 °F 70% 29.95 in 10.0 mi West 12.7 mph - N/A   Clear
9:34 AM 42.8 °F 34.8 °F 33.8 °F 70% 29.95 in 10.0 mi West 17.3 mph 23.0 mph N/A   Clear
9:55 AM 44.6 °F 36.6 °F 33.8 °F 66% 29.96 in 10.0 mi West 19.6 mph - N/A   Clear
10:14 AM 44.6 °F 36.9 °F 33.8 °F 66% 29.96 in 10.0 mi WNW 18.4 mph 23.0 mph N/A   Clear
10:36 AM 46.4 °F 39.5 °F 33.8 °F 62% 29.96 in 10.0 mi WNW 17.3 mph - N/A   Unknown
10:54 AM 46.4 °F 39.8 °F 33.8 °F 62% 29.97 in 10.0 mi West 16.1 mph 21.9 mph N/A   Clear
11:14 AM 48.2 °F - 35.6 °F 62% 29.97 in 10.0 mi WNW 17.3 mph 20.7 mph N/A   Clear
11:34 AM 46.4 °F 38.5 °F 33.8 °F 62% 29.97 in 10.0 mi NW 21.9 mph 26.5 mph N/A   Scattered Clouds
11:55 AM 44.6 °F 37.2 °F 33.8 °F 66% 29.97 in 10.0 mi NW 17.3 mph 21.9 mph N/A   Clear
12:14 PM 44.6 °F 37.2 °F 33.8 °F 66% 29.96 in 10.0 mi NW 17.3 mph - N/A   Clear
12:34 PM 46.4 °F 39.8 °F 33.8 °F 62% 29.96 in 10.0 mi NW 16.1 mph - N/A   Clear
12:54 PM 46.4 °F 40.1 °F 33.8 °F 62% 29.95 in 10.0 mi NW 15.0 mph 21.9 mph N/A   Clear
1:14 PM 46.4 °F 38.7 °F 32.0 °F 57% 29.96 in 10.0 mi WNW 20.7 mph 27.6 mph N/A   Clear
1:34 PM 48.2 °F - 32.0 °F 54% 29.95 in 10.0 mi WNW 17.3 mph - N/A   Clear
1:54 PM 48.2 °F - 33.8 °F 58% 29.95 in 10.0 mi NW 18.4 mph - N/A   Clear
2:14 PM 48.2 °F - 30.2 °F 50% 29.95 in 10.0 mi NW 16.1 mph - N/A   Clear
2:34 PM 48.2 °F - 30.2 °F 50% 29.94 in 10.0 mi WNW 16.1 mph - N/A   Clear
2:55 PM 48.2 °F - 30.2 °F 50% 29.94 in 10.0 mi NW 17.3 mph 23.0 mph N/A   Clear
3:14 PM 48.2 °F - 30.2 °F 50% 29.95 in 10.0 mi NW 16.1 mph 21.9 mph N/A   Clear
3:35 PM 48.2 °F - 30.2 °F 50% 29.95 in 10.0 mi WNW 12.7 mph 24.2 mph N/A   Clear
3:54 PM 46.4 °F 40.1 °F 30.2 °F 53% 29.95 in 10.0 mi WNW 15.0 mph - N/A   Clear
4:14 PM 46.4 °F 40.4 °F 30.2 °F 53% 29.96 in 10.0 mi WNW 13.8 mph - N/A   Clear
4:35 PM 46.4 °F 41.1 °F 30.2 °F 53% 29.97 in 10.0 mi WNW 11.5 mph - N/A   Clear
4:54 PM 44.6 °F 38.4 °F 30.2 °F 57% 29.97 in 10.0 mi WNW 12.7 mph - N/A   Clear
5:14 PM 44.6 °F 39.7 °F 30.2 °F 57% 29.97 in 10.0 mi WNW 9.2 mph - N/A   Clear
5:34 PM 41.0 °F 37.1 °F 30.2 °F 65% 29.97 in 10.0 mi WNW 5.8 mph - N/A   Clear
5:55 PM 37.4 °F 30.8 °F 30.2 °F 75% 29.98 in 10.0 mi WNW 9.2 mph - N/A   Clear
6:14 PM 37.4 °F 32.8 °F 30.2 °F 75% 29.97 in 10.0 mi NW 5.8 mph - N/A   Clear
6:34 PM 35.6 °F - 28.4 °F 75% 29.98 in 10.0 mi Calm Calm - N/A   Clear
6:54 PM 35.6 °F - 30.2 °F 81% 29.98 in 10.0 mi Calm Calm - N/A   Clear
7:14 PM 35.6 °F - 30.2 °F 81% 29.98 in 10.0 mi Calm Calm - N/A   Clear
7:35 PM 33.8 °F - 28.4 °F 81% 29.97 in 10.0 mi Calm Calm - N/A   Clear
7:55 PM 33.8 °F - 28.4 °F 81% 29.97 in 10.0 mi Calm Calm - N/A   Clear
8:14 PM 30.2 °F - 28.4 °F 93% 29.97 in 10.0 mi Calm Calm - N/A   Clear
8:34 PM 30.2 °F 25.4 °F 28.4 °F 93% 29.98 in 10.0 mi SSW 4.6 mph - N/A   Clear
8:54 PM 32.0 °F 28.7 °F 30.2 °F 93% 29.99 in 10.0 mi SW 3.5 mph - N/A   Clear
9:14 PM 33.8 °F - 30.2 °F 87% 29.99 in 10.0 mi Calm Calm - N/A   Clear
9:34 PM 33.8 °F - 30.2 °F 87% 30.00 in 10.0 mi Calm Calm - N/A   Clear
9:54 PM 32.0 °F - 30.2 °F 93% 29.99 in 10.0 mi Calm Calm - N/A   Clear
10:15 PM 30.2 °F - 26.6 °F 86% 29.99 in 7.0 mi Calm Calm - N/A   Clear
10:34 PM 30.2 °F - 28.4 °F 93% 29.99 in 10.0 mi Calm Calm - N/A   Clear
10:54 PM 30.2 °F - 28.4 °F 93% 30.00 in 10.0 mi Calm Calm - N/A   Clear
11:15 PM 30.2 °F - 28.4 °F 93% 30.00 in 10.0 mi Calm Calm - N/A   Clear
11:34 PM 32.0 °F - 30.2 °F 93% 29.99 in 10.0 mi Calm Calm - N/A   Clear
11:54 PM 32.0 °F 28.7 °F 28.4 °F 87% 29.99 in 10.0 mi SE 3.5 mph - N/A   Scattered Clouds